[[{"header":{"parameterUnit":"m.s-1","parameterCategory":1,"la1":30.2991,"la2":30.254,"lo1":-89.0895,"lo2":-89.0444,"dx":0.0017,"dy":0.0017,"nx":28,"ny":28,"refTime":"2022-12-03T09:00:00:Z","depth":0,"parameterNumber":2,"parameterNumberName":"U-component_of_WINDS"},"data":[0,0,0,0,0,0,0,0,0,0,0,0,0,0,0,0,0,0,0,0,0,0,0,0,0,0,0,0,0,0,0,0,0,0,0,0,0,0,0,0,0,0,0,0,0,0,0,0,0,0,0,0,0,0,0,0,0,0,-1.4092,-1.4093,0,-1.4135,-1.4136,-1.4136,-1.4083,-1.4081,-1.4079,-1.4077,-1.4121,-1.4124,-1.4127,0,0,0,0,0,0,0,0,0,0,0,0,0,-1.3966,-1.3968,-1.4092,-1.4093,-1.4093,-1.4135,-1.4136,-1.4136,-1.4083,-1.4081,-1.4078,-1.4076,-1.412,-1.4124,-1.4128,0,0,0,0,0,0,0,0,0,0,0,0,0,-1.4016,-1.3969,-1.4092,-1.4072,-1.407,-1.4135,-1.4136,-1.4136,-1.4084,-1.4081,-1.4078,-1.4075,-1.4119,-1.4124,-1.4128,-1.4214,0,0,-1.4142,-1.4144,0,0,0,0,0,0,0,0,-1.4013,-1.4021,-1.4074,-1.4073,-1.4072,-1.4101,-1.4107,-1.4163,-1.4084,-1.4079,-1.4077,-1.4074,-1.4117,-1.4121,-1.4136,-1.4217,-1.4218,-1.4142,-1.4145,-1.4147,-1.4148,0,0,0,0,0,0,0,-1.401,-1.4019,-1.4109,-1.4075,-1.4074,-1.4061,-1.4065,-1.4117,-1.4114,-1.4079,-1.4075,-1.4081,-1.4116,-1.4132,-1.4136,-1.4219,-1.4142,-1.4146,-1.4149,-1.4151,-1.4374,-1.4377,0,0,0,0,0,0,-1.4009,-1.4016,-1.4108,-1.411,-1.4035,-1.4066,-1.407,-1.4094,-1.4113,-1.4113,-1.4083,-1.4078,-1.4125,-1.4131,-1.4138,-1.424,-1.4147,-1.4151,-1.4154,-1.4371,-1.4375,-1.4378,0,0,0,0,0,0,-1.4006,-1.4017,-1.4106,-1.4062,-1.4073,-1.4071,-1.4099,-1.4097,-1.4113,-1.4116,-1.4116,-1.41,-1.4123,-1.4132,-1.4196,-1.4241,-1.4153,-1.4157,-1.4367,-1.4372,-1.4377,-1.4446,0,0,0,0,0,0,-1.4003,-1.4017,-1.4049,-1.4063,-1.4075,-1.4163,-1.4102,-1.41,-1.412,-1.4114,-1.4132,-1.4132,-1.4122,-1.419,-1.4201,-1.4246,-1.4161,-1.4363,-1.4369,-1.4375,-1.444,-1.4453,-1.4464,0,0,0,0,0,-1.3998,-1.4067,-1.4051,-1.4062,-1.4115,-1.4166,-1.4172,-1.4159,-1.4124,-1.4157,-1.416,-1.4132,-1.4235,-1.4197,-1.4208,-1.4256,-1.436,-1.4367,-1.4375,-1.4434,-1.445,-1.4463,0,0,0,0,0,0,-1.4057,-1.4068,-1.4051,-1.4126,-1.4145,-1.4157,-1.4197,-1.4176,-1.4206,-1.4199,-1.4181,-1.4185,-1.4254,-1.4262,-1.4219,-1.4341,-1.4292,-1.4302,-1.4333,-1.4348,-1.436,-1.4356,-1.4164,0,0,0,0,0,-1.4079,-1.4119,-1.4126,-1.4192,-1.4202,-1.4199,-1.422,-1.4208,-1.4228,-1.4236,-1.4243,-1.4263,-1.43,-1.4325,-1.4359,-1.4441,-1.4444,-1.448,-1.4492,-1.4502,-1.451,-1.4555,-1.457,-1.4402,-1.4402,-1.4402,0,0,-1.4124,-1.4135,-1.4161,-1.4204,-1.4217,-1.4259,-1.4206,-1.4252,-1.4283,-1.4243,-1.4303,-1.431,-1.4332,-1.4406,-1.4439,-1.4414,-1.4558,-1.4511,-1.4519,-1.4522,-1.4564,-1.458,-1.4594,-1.4407,-1.4406,-1.4405,0,0,-1.4227,-1.4239,-1.4295,-1.4311,-1.4333,-1.433,-1.4344,-1.4359,-1.4362,-1.4423,-1.4394,-1.4431,-1.4495,-1.4512,-1.4529,-1.4642,-1.4617,-1.4654,-1.4716,-1.476,-1.4773,-1.4784,-1.4824,-1.4839,-1.4662,-1.4663,-1.4663,0,-1.428,-1.4341,-1.4327,-1.4376,-1.4396,-1.4362,-1.4419,-1.4435,-1.4467,-1.4482,-1.4454,-1.4535,-1.4547,-1.4624,-1.4652,-1.4667,-1.4682,-1.465,-1.4772,-1.4784,-1.4794,-1.4832,-1.4847,-1.4667,-1.4666,-1.4666,-1.4665,0,-1.4405,-1.4449,-1.4492,-1.4524,-1.4549,-1.4602,-1.4596,-1.4623,-1.461,-1.4611,-1.4674,-1.4688,-1.4725,-1.4743,-1.4731,-1.482,-1.4804,-1.4775,-1.4724,-1.4815,-1.485,-1.4864,-1.4673,-1.4671,-1.467,-1.4669,0,0,-1.4544,-1.4569,-1.4585,-1.46,-1.4622,-1.4656,-1.4708,-1.4744,-1.4768,-1.4792,-1.4835,-1.4892,-1.4866,-1.4885,-1.4875,-1.4913,-1.5001,-1.4879,-1.488,-1.4901,-1.51,-1.5121,-1.5138,-1.4986,-1.4989,-1.4991,-1.5098,0,-1.4647,-1.4736,-1.4726,-1.4811,-1.4851,-1.4821,-1.4867,-1.4886,-1.4889,-1.4924,-1.4927,-1.4967,-1.493,-1.4941,-1.4978,-1.4983,-1.5041,-1.4975,-1.5026,-1.5028,-1.502,-1.5156,-1.5178,-1.5278,-1.5112,-1.5114,-1.5116,0,-1.4778,-1.4807,-1.4896,-1.4914,-1.4931,-1.4972,-1.5005,-1.5039,-1.5061,-1.506,-1.5084,-1.5067,-1.512,-1.5071,-1.5144,-1.5099,-1.512,-1.5126,-1.5129,-1.5132,-1.5076,-1.5162,-1.531,-1.5325,-1.5138,-1.5136,-1.5134,0,-1.4869,-1.4931,-1.4993,-1.5006,-1.5029,-1.5058,-1.5069,-1.5088,-1.5112,-1.5141,-1.5156,-1.5192,-1.5211,-1.5239,-1.5233,-1.5198,-1.5308,-1.5258,-1.5309,-1.5309,-1.5331,-1.533,-1.5484,-1.5348,-1.5347,-1.5347,-1.5347,0,-1.4984,-1.5039,-1.5034,-1.5072,-1.5134,-1.5122,-1.5184,-1.5192,-1.521,-1.5249,-1.5226,-1.5263,-1.5254,-1.5291,-1.5287,-1.5348,-1.5357,-1.5359,-1.5356,-1.536,-1.5359,-1.5371,-1.5364,-1.5351,-1.535,-1.5349,-1.5349,0,-1.5095,-1.5093,-1.5159,-1.5176,-1.5181,-1.5226,-1.5241,-1.5277,-1.5279,-1.5329,-1.534,-1.5343,-1.5386,-1.5383,-1.5432,-1.5429,-1.5505,-1.5495,-1.5497,-1.5494,-1.5545,-1.554,-1.5711,-1.5733,-1.5584,-1.5585,-1.5586,0,-1.5167,-1.5209,-1.5231,-1.5256,-1.5269,-1.5309,-1.5333,-1.5324,-1.535,-1.538,-1.5412,-1.5453,-1.5485,-1.5556,-1.5563,-1.56,-1.5591,-1.5648,-1.5596,-1.5598,-1.559,-1.5587,-1.5592,-1.5658,-1.5659,-1.5661,-1.5662,0,-1.5296,-1.5294,-1.5328,-1.5364,-1.5393,-1.542,-1.5445,-1.5467,-1.5461,-1.5492,-1.5535,-1.556,-1.5611,-1.5652,-1.5688,-1.57,-1.568,-1.5679,-1.5692,-1.5695,-1.5694,-1.5695,-1.5524,-1.5674,-1.5673,-1.5672,-1.5672,-1.5671,-1.5389,-1.5425,-1.5447,-1.5487,-1.5505,-1.553,-1.5564,-1.5571,-1.5608,-1.5648,-1.5641,-1.569,-1.5713,-1.576,-1.5775,-1.5814,-1.5794,-1.5814,-1.5818,-1.5823,-1.5828,-1.569,-1.5821,-1.5821,-1.582,-1.582,-1.582,0,-1.5515,-1.5528,-1.5565,-1.5601,-1.5633,-1.5613,-1.5641,-1.5668,-1.5712,-1.5735,-1.5768,-1.5819,-1.5859,-1.587,-1.591,-1.5939,-1.5931,-1.5949,-1.5946,-1.5949,-1.5845,-1.5829,-1.5955,-1.5955,-1.5955,-1.5955,-1.5955,-1.5955,-1.5585,-1.5645,-1.5646,-1.5716,-1.5729,-1.5777,-1.5794,-1.5817,-1.5835,-1.5893,-1.5927,-1.5934,-1.5953,-1.5994,-1.603,-1.6032,-1.6047,-1.6069,-1.6068,-1.597,-1.5956,-1.5943,-1.5928,-1.6073,-1.6073,-1.6169,-1.617,-1.617]},{"header":{"parameterUnit":"m.s-1","parameterCategory":1,"la1":30.2991,"la2":30.254,"lo1":-89.0895,"lo2":-89.0444,"dx":0.0017,"dy":0.0017,"nx":28,"ny":28,"refTime":"2022-12-03T09:00:00:Z","depth":0,"parameterNumber":3,"parameterNumberName":"V-component_of_WINDS"},"data":[0,0,0,0,0,0,0,0,0,0,0,0,0,0,0,0,0,0,0,0,0,0,0,0,0,0,0,0,0,0,0,0,0,0,0,0,0,0,0,0,0,0,0,0,0,0,0,0,0,0,0,0,0,0,0,0,0,0,1.049,1.049,0,1.0537,1.0537,1.0538,1.0599,1.06,1.0601,1.0602,1.0648,1.0649,1.0649,0,0,0,0,0,0,0,0,0,0,0,0,0,1.0451,1.0451,1.049,1.049,1.0491,1.0537,1.0537,1.0538,1.0599,1.06,1.0602,1.0603,1.0648,1.0649,1.0649,0,0,0,0,0,0,0,0,0,0,0,0,0,1.0479,1.0451,1.0489,1.0527,1.0531,1.0537,1.0537,1.0538,1.0599,1.06,1.0602,1.0603,1.0648,1.0649,1.0649,1.0621,0,0,1.065,1.0651,0,0,0,0,0,0,0,0,1.0478,1.0481,1.0521,1.0524,1.0529,1.0564,1.0541,1.0566,1.0599,1.0573,1.0602,1.0604,1.0619,1.0622,1.0627,1.0623,1.0625,1.065,1.0651,1.0651,1.0651,0,0,0,0,0,0,0,1.0476,1.0479,1.0508,1.0521,1.0526,1.0541,1.0546,1.0546,1.0587,1.0575,1.058,1.0585,1.0621,1.0627,1.0629,1.0626,1.065,1.0651,1.0651,1.0651,1.0602,1.06,0,0,0,0,0,0,1.0468,1.0477,1.0507,1.051,1.0506,1.054,1.0547,1.0551,1.0587,1.0594,1.0583,1.0587,1.0625,1.0628,1.0631,1.06,1.0651,1.0651,1.0651,1.0603,1.0601,1.06,0,0,0,0,0,0,1.0467,1.047,1.0505,1.0495,1.05,1.0539,1.0543,1.0551,1.0557,1.0593,1.0601,1.0581,1.0627,1.063,1.0623,1.0603,1.0651,1.0652,1.0605,1.0603,1.06,1.0539,0,0,0,0,0,0,1.0466,1.047,1.046,1.0494,1.05,1.0497,1.0542,1.0551,1.0557,1.0563,1.0593,1.06,1.0628,1.0622,1.0624,1.0604,1.0652,1.0607,1.0604,1.0601,1.0543,1.0535,1.0528,0,0,0,0,0,1.0464,1.044,1.0459,1.0462,1.0489,1.0496,1.0499,1.0533,1.0555,1.0546,1.0569,1.0599,1.0605,1.0621,1.0623,1.0603,1.0608,1.0605,1.0601,1.0547,1.0537,1.0528,0,0,0,0,0,0,1.0402,1.0446,1.0467,1.0453,1.047,1.0506,1.0495,1.0521,1.0532,1.0537,1.0578,1.0584,1.0572,1.0587,1.0604,1.0578,1.0611,1.0608,1.0569,1.056,1.0552,1.0548,1.0652,0,0,0,0,0,1.0387,1.0389,1.0427,1.0411,1.0419,1.0455,1.0459,1.0484,1.0503,1.051,1.0533,1.055,1.0556,1.0559,1.0566,1.0546,1.0553,1.0533,1.0526,1.0519,1.0516,1.0506,1.0497,1.0588,1.0588,1.0588,0,0,1.0355,1.038,1.0378,1.04,1.0416,1.0416,1.0461,1.046,1.0461,1.051,1.0505,1.0522,1.0544,1.053,1.0525,1.0542,1.0493,1.0515,1.051,1.051,1.0501,1.0493,1.0485,1.0586,1.0586,1.0586,0,0,1.0298,1.0317,1.0306,1.0322,1.0346,1.037,1.0367,1.0399,1.0413,1.0409,1.0446,1.0447,1.0456,1.047,1.0478,1.0426,1.0453,1.0427,1.0387,1.0377,1.037,1.0364,1.0344,1.0337,1.0423,1.0423,1.0423,0,1.0256,1.0259,1.0297,1.0294,1.0302,1.0347,1.0336,1.0349,1.0374,1.0378,1.0397,1.0409,1.0427,1.0417,1.0404,1.041,1.0407,1.0423,1.0368,1.0362,1.0357,1.0339,1.0332,1.042,1.042,1.0421,1.0421,0,1.0206,1.0207,1.0196,1.0219,1.0226,1.0218,1.0254,1.0256,1.028,1.0302,1.0297,1.032,1.0333,1.0332,1.0355,1.0325,1.0335,1.0361,1.0394,1.0344,1.0328,1.0322,1.0415,1.0416,1.0417,1.0418,0,0,1.011,1.0155,1.015,1.0161,1.0191,1.0193,1.0187,1.0201,1.0201,1.0217,1.0213,1.022,1.0243,1.0252,1.0278,1.0269,1.0225,1.0295,1.0296,1.0281,1.0193,1.0173,1.0165,1.0244,1.0243,1.0242,1.0191,0,1.0058,1.0052,1.0086,1.0071,1.0072,1.0115,1.0111,1.0128,1.0149,1.0152,1.0175,1.0179,1.021,1.0216,1.0209,1.0232,1.0208,1.0236,1.024,1.0239,1.0232,1.0156,1.0136,1.0086,1.0185,1.0184,1.0183,0,0.9997,1.001,0.9995,1.0026,1.0028,1.0023,1.0037,1.0041,1.0061,1.0077,1.0087,1.0116,1.0112,1.0144,1.0139,1.0158,1.0161,1.0172,1.0171,1.0172,1.0207,1.0154,1.0071,1.0063,1.0174,1.0174,1.0175,0,0.9928,0.9942,0.9935,0.9943,0.9979,0.9974,0.9989,1.0011,1.0016,1.0029,1.0033,1.0044,1.005,1.0058,1.009,1.011,1.008,1.0115,1.0092,1.0091,1.0083,1.0083,0.9998,1.0086,1.0086,1.0087,1.0087,0,0.9866,0.9855,0.9904,0.9899,0.9888,0.9927,0.9914,0.9933,0.9952,0.9951,0.9989,0.9988,1.0029,1.0032,1.0056,1.0048,1.005,1.0062,1.0069,1.0058,1.0057,1.0061,1.0064,1.0085,1.0085,1.0085,1.0086,0,0.9787,0.982,0.9815,0.9849,0.9857,0.9847,0.9877,0.9873,0.9897,0.9895,0.9897,0.9932,0.9938,0.997,0.9982,0.9998,0.9981,0.9994,0.9974,0.9978,0.9953,0.9954,0.9867,0.9857,0.9952,0.9951,0.995,0,0.9745,0.9738,0.9772,0.9774,0.9787,0.9791,0.9797,0.9835,0.9839,0.9862,0.9856,0.9864,0.9873,0.9879,0.9905,0.9915,0.9928,0.9897,0.993,0.992,0.9927,0.9927,0.9926,0.989,0.9889,0.9888,0.9887,0,0.9667,0.9684,0.9692,0.9705,0.9711,0.9723,0.9737,0.9737,0.9778,0.9781,0.9788,0.9794,0.9807,0.9815,0.9829,0.9843,0.9871,0.9876,0.9871,0.986,0.9848,0.9854,0.9954,0.9878,0.9879,0.9879,0.988,0.988,0.9605,0.9601,0.9624,0.9631,0.9646,0.9658,0.9657,0.968,0.9686,0.9699,0.9721,0.9724,0.9744,0.9766,0.9778,0.978,0.9797,0.979,0.9788,0.9785,0.9779,0.9849,0.9783,0.9783,0.9784,0.9784,0.9784,0,0.9529,0.9546,0.9552,0.9571,0.9576,0.9604,0.9621,0.9623,0.9625,0.9642,0.965,0.9657,0.9664,0.9691,0.9702,0.9698,0.9711,0.9699,0.9699,0.9702,0.9764,0.9767,0.9688,0.9688,0.9688,0.9688,0.9688,0.9688,0.949,0.9483,0.9502,0.9502,0.952,0.9523,0.953,0.9542,0.9556,0.9561,0.9568,0.9586,0.9607,0.9619,0.9626,0.9634,0.9636,0.9619,0.9631,0.9689,0.9698,0.9706,0.971,0.9619,0.9619,0.9569,0.9568,0.9568]}]]